EW5413 Weather Reports


time (UTC)temp
F
wind
direction
speed
knots
gust
knots
rain 1hr
in
rain 24hr
in
rain mn
in
humidity
%
barometer
mb
20260506115030 50 315 4.3 7.0 0.00 0.00 0.00 52 1013.7
20260506114040 50 315 3.5 6.1 0.00 0.00 0.00 53 1013.7
20260506113021 49 315 3.5 7.8 0.00 0.00 0.00 55 1013.7
20260506112041 49 315 3.5 6.1 0.00 0.00 0.00 54 1013.7
20260506111020 50 293 3.5 6.1 0.00 0.00 0.00 53 1014.0
20260506110020 49 293 3.5 7.0 0.00 0.00 0.00 55 1014.1
20260506105040 48 315 4.3 8.7 0.00 0.00 0.00 55 1014.0
20260506104120 48 315 3.5 6.1 0.00 0.00 0.00 56 1014.0
20260506103020 48 293 3.5 7.0 0.00 0.00 0.00 56 1014.0
20260506102029 48 315 4.3 7.0 0.00 0.00 0.00 57 1014.0
20260506101021 48 315 4.3 7.8 0.00 0.00 0.00 56 1014.2
20260506100041 48 315 2.6 5.2 0.00 0.00 0.00 57 1014.2
20260506095020 48 293 2.6 4.3 0.00 0.00 0.00 55 1014.3
20260506094029 47 315 1.7 4.3 0.00 0.00 0.00 58 1014.2
20260506093021 47 315 2.6 4.3 0.00 0.00 0.00 57 1014.4
20260506092029 47 293 0.9 3.5 0.00 0.00 0.00 56 1014.4
20260506091031 46 293 1.7 3.5 0.00 0.00 0.00 57 1014.4
20260506090021 46 315 1.7 3.5 0.00 0.00 0.00 59 1014.7
20260506085021 45 315 1.7 3.5 0.00 0.00 0.00 61 1014.8
20260506084028 45 293 2.6 5.2 0.00 0.00 0.00 61 1014.9
20260506083032 45 293 3.5 5.2 0.00 0.00 0.00 63 1015.2
20260506082049 45 315 1.7 3.5 0.00 0.00 0.00 67 1015.1
20260506081031 44 158 0.9 3.5 0.00 0.00 0.00 70 1015.1
20260506073029 40 0.0 0.9 0.00 0.00 0.00 81 1015.1
20260506072020 38 0.0 0.0 0.00 0.00 0.00 82 1015.2
20260506071020 38 0.0 0.0 0.00 0.00 0.00 83 1015.2
20260506062029 33 0.0 0.0 0.00 0.00 0.00 85 1015.3
20260506061028 33 0.0 0.0 0.00 0.00 0.00 84 1015.3
20260506051033 30 0.0 0.0 0.00 0.00 0.00 84 1015.6
20260506045028 30 0.0 0.0 0.00 0.00 0.00 84 1015.8
20260506044030 30 0.0 0.0 0.00 0.00 0.00 83 1015.8
20260506043031 30 0.0 0.0 0.00 0.00 0.00 84 1015.9
20260506042020 30 0.0 0.0 0.00 0.00 0.00 83 1015.8
20260506041021 30 0.0 0.0 0.00 0.00 0.00 83 1015.8
20260506040028 30 0.0 0.0 0.00 0.00 0.00 83 1015.8
20260506035048 30 0.0 0.0 0.00 0.00 0.00 83 1015.9
20260506034020 30 0.0 0.0 0.00 0.00 0.00 83 1016.0
20260506033049 31 0.0 0.0 0.00 0.00 0.00 83 1016.1
20260506032020 31 0.0 0.0 0.00 0.00 0.00 82 1016.2
20260506031019 31 0.0 0.0 0.00 0.00 0.00 82 1016.2
20260506030019 31 0.0 0.0 0.00 0.00 0.00 82 1016.4
20260506025028 31 0.0 0.0 0.00 0.00 0.00 82 1016.4
20260506024019 31 0.0 0.0 0.00 0.00 0.00 82 1016.4
20260506023019 31 0.0 0.0 0.00 0.00 0.00 82 1016.4
20260506022028 31 0.0 0.0 0.00 0.00 0.00 82 1016.4
20260506021040 31 0.0 0.0 0.00 0.00 0.00 81 1016.4
20260506020019 32 0.0 0.0 0.00 0.00 0.00 81 1016.5
20260506015028 32 0.0 0.0 0.00 0.00 0.00 81 1016.5
20260506014041 32 0.0 0.0 0.00 0.00 0.00 81 1016.6
20260506013019 32 0.0 0.0 0.00 0.00 0.00 81 1016.5
20260506012020 32 0.0 0.0 0.00 0.00 0.00 80 1016.6
20260506011028 33 0.0 0.0 0.00 0.00 0.00 80 1016.6
20260506010028 33 0.0 0.0 0.00 0.00 0.00 80 1016.7
20260506005019 33 0.0 0.0 0.00 0.00 0.00 80 1016.7
20260506004029 34 0.0 0.0 0.00 0.00 0.00 80 1016.7
20260506003028 34 0.0 0.0 0.00 0.00 0.00 80 1016.7
20260506002027 34 0.0 0.0 0.00 0.00 0.00 79 1016.8
20260506001019 34 0.0 0.0 0.00 0.00 0.00 79 1016.9
20260506000019 34 0.0 0.0 0.00 0.00 0.00 79 1016.9
20260505235039 34 0.0 0.0 0.00 0.00 0.00 78 1017.0
20260505234019 34 0.0 0.0 0.00 0.00 0.00 78 1017.0
20260505233019 34 0.0 0.0 0.00 0.00 0.00 78 1017.1
20260505232028 34 0.0 0.0 0.00 0.00 0.00 77 1017.2
20260505231028 34 0.0 0.0 0.00 0.00 0.00 77 1017.2
20260505230028 34 0.0 0.0 0.00 0.00 0.00 77 1017.2
20260505225048 34 0.0 0.0 0.00 0.00 0.00 76 1017.3
20260505224020 35 0.0 0.0 0.00 0.00 0.00 75 1017.4
20260505223257 35 0.0 0.0 0.00 0.00 0.00 74 1017.4
20260505222021 35 0.0 0.0 0.00 0.00 0.00 74 1017.5
20260505221033 35 0.0 0.0 0.00 0.00 0.00 73 1017.3
20260505220020 36 45 1.7 4.3 0.00 0.00 0.00 72 1017.4
20260505215019 36 0.0 0.9 0.00 0.00 0.00 72 1017.5
20260505214030 37 0.0 0.0 0.00 0.00 0.00 72 1017.4
20260505213028 37 90 0.9 2.6 0.00 0.00 0.00 72 1017.3
20260505212029 38 113 0.9 2.6 0.00 0.01 0.00 71 1017.2
20260505211037 38 0.0 2.6 0.00 0.01 0.00 71 1017.2
20260505210019 39 45 0.9 4.3 0.00 0.01 0.00 71 1017.2
20260505205024 39 45 0.9 2.6 0.00 0.02 0.00 71 1017.3
20260505204019 40 180 0.9 2.6 0.00 0.02 0.00 70 1017.3
20260505203039 40 0.0 2.6 0.00 0.02 0.00 69 1017.3
20260505202028 41 293 0.9 2.6 0.00 0.02 0.00 68 1017.1
20260505201019 42 315 1.7 5.2 0.00 0.02 0.00 67 1017.2
20260505200019 42 315 1.7 5.2 0.00 0.02 0.00 67 1017.3
20260505195028 43 315 4.3 9.6 0.00 0.02 0.00 66 1017.2
20260505194019 43 315 3.5 7.8 0.00 0.02 0.00 65 1017.1
20260505193030 44 315 4.3 9.6 0.00 0.02 0.00 63 1017.2
20260505192057 44 315 5.2 9.6 0.00 0.02 0.00 62 1017.2
20260505191040 44 315 5.2 9.6 0.00 0.02 0.00 60 1017.1
20260505190019 45 315 7.0 11.3 0.00 0.02 0.00 59 1017.1
20260505185028 45 315 6.1 12.2 0.00 0.02 0.00 59 1017.0
20260505184019 46 315 4.3 9.6 0.00 0.02 0.00 58 1017.2
20260505183019 47 293 4.3 8.7 0.00 0.02 0.00 56 1017.1
20260505182028 47 293 4.3 9.6 0.00 0.02 0.00 55 1017.2
20260505181024 47 293 2.6 6.1 0.00 0.02 0.00 55 1017.2
20260505180019 47 293 6.1 12.2 0.00 0.02 0.00 55 1017.2
20260505175029 47 315 5.2 7.8 0.00 0.02 0.00 55 1017.2
20260505174028 47 315 6.1 11.3 0.00 0.02 0.00 56 1017.2
20260505173029 48 293 4.3 11.3 0.00 0.02 0.00 58 1017.3
20260505172020 48 293 4.3 9.6 0.00 0.02 0.00 58 1017.3
20260505171019 48 293 6.1 12.2 0.00 0.02 0.00 57 1017.3
20260505170019 48 315 6.1 10.4 0.00 0.02 0.00 57 1017.2
20260505165037 48 315 6.1 11.3 0.00 0.02 0.00 56 1017.2
20260505164039 47 315 6.1 11.3 0.00 0.02 0.00 57 1017.2
20260505163019 47 315 5.2 11.3 0.00 0.02 0.00 56 1017.2
20260505162019 49 315 6.1 16.5 0.00 0.03 0.00 54 1017.1
20260505161019 49 338 7.0 14.8 0.00 0.04 0.00 53 1017.1
20260505153019 47 293 5.2 10.4 0.00 0.05 0.00 58 1017.2
20260505152027 47 315 6.1 13.0 0.00 0.05 0.00 57 1017.2
20260505151039 47 338 6.1 12.2 0.00 0.05 0.00 58 1017.2
20260505125027 47 293 5.2 10.4 0.00 0.09 0.00 58 1017.3
20260505124021 45 315 4.3 7.8 0.00 0.09 0.00 59 1017.3
20260505123027 45 338 4.3 7.8 0.00 0.09 0.00 61 1017.4
20260505122021 46 315 3.5 7.8 0.00 0.09 0.00 62 1017.3
20260505121020 46 315 6.1 11.3 0.00 0.09 0.00 59 1017.3
20260505120018 47 315 5.2 10.4 0.00 0.09 0.00 53 1017.3